Date_Time,Julian_Date,Latitude,Longitude,Instrument_Depth,U,V,Speed,Direction
(yyyy-mm-dd hh:mn:ss UTC),(JD),(+ deg. North),(+ deg. East),(m),(cm/s),(cm/s),(cm/s),(deg True)
1984-08-29 17:30:00 UTC,2445942.229167,29.6633,-93.4786,0090,-0.70,7.97,8.0000,355.0000
1984-08-29 18:00:00 UTC,2445942.250000,29.6633,-93.4786,0090,-2.76,9.61,10.0000,344.0000
1984-08-29 18:30:00 UTC,2445942.270833,29.6633,-93.4786,0090,-4.82,9.89,11.0000,334.0000
1984-08-29 19:00:00 UTC,2445942.291667,29.6633,-93.4786,0090,-6.47,8.90,11.0000,324.0000
1984-08-29 19:30:00 UTC,2445942.312500,29.6633,-93.4786,0090,-7.36,8.17,11.0000,318.0000
1984-08-29 20:00:00 UTC,2445942.333333,29.6633,-93.4786,0090,-8.17,7.36,11.0000,312.0000
1984-08-29 20:30:00 UTC,2445942.354167,29.6633,-93.4786,0090,-9.58,7.22,12.0000,307.0000
1984-08-29 21:00:00 UTC,2445942.375000,29.6633,-93.4786,0090,-9.83,6.88,12.0000,305.0000
1984-08-29 21:30:00 UTC,2445942.395833,29.6633,-93.4786,0090,-10.06,6.54,12.0000,303.0000
1984-08-29 22:00:00 UTC,2445942.416667,29.6633,-93.4786,0090,-9.33,5.83,11.0000,302.0000
1984-08-29 22:30:00 UTC,2445942.437500,29.6633,-93.4786,0090,-7.71,4.64,9.0000,301.0000
1984-08-29 23:00:00 UTC,2445942.458333,29.6633,-93.4786,0090,-5.87,3.81,7.0000,303.0000
1984-08-29 23:30:00 UTC,2445942.479167,29.6633,-93.4786,0090,-4.39,4.09,6.0000,313.0000
1984-08-30 00:00:00 UTC,2445942.500000,29.6633,-93.4786,0090,-2.12,3.39,4.0000,328.0000
1984-08-30 00:30:00 UTC,2445942.520833,29.6633,-93.4786,0090,-0.78,2.90,3.0000,345.0000
1984-08-30 01:00:00 UTC,2445942.541667,29.6633,-93.4786,0090,0.58,1.91,2.0000,17.0000
1984-08-30 01:30:00 UTC,2445942.562500,29.6633,-93.4786,0090,2.05,2.19,3.0000,43.0000
1984-08-30 02:00:00 UTC,2445942.583333,29.6633,-93.4786,0090,2.33,1.89,3.0000,51.0000
1984-08-30 02:30:00 UTC,2445942.604167,29.6633,-93.4786,0090,2.36,1.85,3.0000,52.0000
1984-08-30 03:00:00 UTC,2445942.625000,29.6633,-93.4786,0090,3.06,2.57,4.0000,50.0000
1984-08-30 03:30:00 UTC,2445942.645833,29.6633,-93.4786,0090,3.60,3.47,5.0000,46.0000
1984-08-30 04:00:00 UTC,2445942.666667,29.6633,-93.4786,0090,4.50,5.36,7.0000,40.0000
1984-08-30 04:30:00 UTC,2445942.687500,29.6633,-93.4786,0090,5.03,6.22,8.0000,39.0000
1984-08-30 05:00:00 UTC,2445942.708333,29.6633,-93.4786,0090,4.93,6.30,8.0000,38.0000
1984-08-30 05:30:00 UTC,2445942.729167,29.6633,-93.4786,0090,3.76,7.06,8.0000,28.0000
1984-08-30 06:00:00 UTC,2445942.750000,29.6633,-93.4786,0090,2.60,7.56,8.0000,19.0000
1984-08-30 06:30:00 UTC,2445942.770833,29.6633,-93.4786,0090,0.85,6.95,7.0000,7.0000
1984-08-30 07:00:00 UTC,2445942.791667,29.6633,-93.4786,0090,-1.34,6.87,7.0000,349.0000
1984-08-30 07:30:00 UTC,2445942.812500,29.6633,-93.4786,0090,-2.44,5.48,6.0000,336.0000
1984-08-30 08:00:00 UTC,2445942.833333,29.6633,-93.4786,0090,-3.27,5.03,6.0000,327.0000
1984-08-30 08:30:00 UTC,2445942.854167,29.6633,-93.4786,0090,-4.95,4.95,7.0000,315.0000
1984-08-30 09:00:00 UTC,2445942.875000,29.6633,-93.4786,0090,-5.66,4.11,7.0000,306.0000
1984-08-30 09:30:00 UTC,2445942.895833,29.6633,-93.4786,0090,-6.78,4.24,8.0000,302.0000
1984-08-30 10:00:00 UTC,2445942.916667,29.6633,-93.4786,0090,-6.06,3.50,7.0000,300.0000
1984-08-30 10:30:00 UTC,2445942.937500,29.6633,-93.4786,0090,-5.48,2.44,6.0000,294.0000
1984-08-30 11:00:00 UTC,2445942.958333,29.6633,-93.4786,0090,-2.87,0.88,3.0000,287.0000
1984-08-30 11:30:00 UTC,2445942.979167,29.6633,-93.4786,0090,-0.98,0.17,1.0000,280.0000
1984-08-30 12:00:00 UTC,2445943.000000,29.6633,-93.4786,0090,-0.97,-0.24,1.0000,256.0000
1984-08-30 12:30:00 UTC,2445943.020833,29.6633,-93.4786,0090,-1.77,-0.94,2.0000,242.0000
1984-08-30 13:00:00 UTC,2445943.041667,29.6633,-93.4786,0090,-1.34,-1.49,2.0000,222.0000
1984-08-30 13:30:00 UTC,2445943.062500,29.6633,-93.4786,0090,-0.83,-2.88,3.0000,196.0000
1984-08-30 14:00:00 UTC,2445943.083333,29.6633,-93.4786,0090,0.21,-3.99,4.0000,177.0000
1984-08-30 14:30:00 UTC,2445943.104167,29.6633,-93.4786,0090,-0.09,-5.00,5.0000,181.0000
1984-08-30 15:00:00 UTC,2445943.125000,29.6633,-93.4786,0090,-0.90,-3.90,4.0000,193.0000
1984-08-30 15:30:00 UTC,2445943.145833,29.6633,-93.4786,0090,-1.00,-1.73,2.0000,210.0000
1984-08-30 16:00:00 UTC,2445943.166667,29.6633,-93.4786,0090,-0.00,0.00,0.0000,344.0000
1984-08-30 16:30:00 UTC,2445943.187500,29.6633,-93.4786,0090,0.73,2.91,3.0000,14.0000
1984-08-30 17:00:00 UTC,2445943.208333,29.6633,-93.4786,0090,1.21,4.85,5.0000,14.0000
1984-08-30 17:30:00 UTC,2445943.229167,29.6633,-93.4786,0090,1.12,4.87,5.0000,13.0000
1984-08-30 18:00:00 UTC,2445943.250000,29.6633,-93.4786,0090,1.12,4.87,5.0000,13.0000
1984-08-30 18:30:00 UTC,2445943.270833,29.6633,-93.4786,0090,0.61,4.96,5.0000,7.0000
1984-08-30 19:00:00 UTC,2445943.291667,29.6633,-93.4786,0090,-0.42,5.99,6.0000,356.0000
1984-08-30 19:30:00 UTC,2445943.312500,29.6633,-93.4786,0090,-2.16,6.66,7.0000,342.0000
1984-08-30 20:00:00 UTC,2445943.333333,29.6633,-93.4786,0090,-3.88,7.00,8.0000,331.0000
1984-08-30 20:30:00 UTC,2445943.354167,29.6633,-93.4786,0090,-4.24,6.78,8.0000,328.0000
1984-08-30 21:00:00 UTC,2445943.375000,29.6633,-93.4786,0090,-3.91,5.80,7.0000,326.0000
1984-08-30 21:30:00 UTC,2445943.395833,29.6633,-93.4786,0090,-4.09,4.39,6.0000,317.0000
1984-08-30 22:00:00 UTC,2445943.416667,29.6633,-93.4786,0090,-4.33,2.50,5.0000,300.0000
1984-08-30 22:30:00 UTC,2445943.437500,29.6633,-93.4786,0090,-3.96,0.56,4.0000,278.0000
1984-08-30 23:00:00 UTC,2445943.458333,29.6633,-93.4786,0090,-3.90,-0.90,4.0000,257.0000
1984-08-30 23:30:00 UTC,2445943.479167,29.6633,-93.4786,0090,-3.94,-3.08,5.0000,232.0000
1984-08-31 00:00:00 UTC,2445943.500000,29.6633,-93.4786,0090,-3.18,-5.09,6.0000,212.0000
1984-08-31 00:30:00 UTC,2445943.520833,29.6633,-93.4786,0090,-3.07,-6.29,7.0000,206.0000
1984-08-31 01:00:00 UTC,2445943.541667,29.6633,-93.4786,0090,-3.07,-6.29,7.0000,206.0000
1984-08-31 01:30:00 UTC,2445943.562500,29.6633,-93.4786,0090,-3.63,-7.13,8.0000,207.0000
1984-08-31 02:00:00 UTC,2445943.583333,29.6633,-93.4786,0090,-4.23,-7.95,9.0000,208.0000
1984-08-31 02:30:00 UTC,2445943.604167,29.6633,-93.4786,0090,-4.36,-7.87,9.0000,209.0000
1984-08-31 03:00:00 UTC,2445943.625000,29.6633,-93.4786,0090,-3.95,-8.09,9.0000,206.0000
1984-08-31 03:30:00 UTC,2445943.645833,29.6633,-93.4786,0090,-3.76,-7.06,8.0000,208.0000
1984-08-31 04:00:00 UTC,2445943.666667,29.6633,-93.4786,0090,-4.00,-6.93,8.0000,210.0000
1984-08-31 04:30:00 UTC,2445943.687500,29.6633,-93.4786,0090,-4.59,-6.55,8.0000,215.0000
1984-08-31 05:00:00 UTC,2445943.708333,29.6633,-93.4786,0090,-4.24,-4.24,6.0000,225.0000
1984-08-31 05:30:00 UTC,2445943.729167,29.6633,-93.4786,0090,-3.77,-3.28,5.0000,229.0000
1984-08-31 06:00:00 UTC,2445943.750000,29.6633,-93.4786,0090,-2.83,-2.83,4.0000,225.0000
1984-08-31 06:30:00 UTC,2445943.770833,29.6633,-93.4786,0090,-3.06,-2.57,4.0000,230.0000
1984-08-31 07:00:00 UTC,2445943.791667,29.6633,-93.4786,0090,-3.68,-1.56,4.0000,247.0000
1984-08-31 07:30:00 UTC,2445943.812500,29.6633,-93.4786,0090,-4.85,-1.21,5.0000,256.0000
1984-08-31 08:00:00 UTC,2445943.833333,29.6633,-93.4786,0090,-5.71,-1.85,6.0000,252.0000
1984-08-31 08:30:00 UTC,2445943.854167,29.6633,-93.4786,0090,-5.44,-2.54,6.0000,245.0000
1984-08-31 09:00:00 UTC,2445943.875000,29.6633,-93.4786,0090,-6.00,-3.61,7.0000,239.0000
1984-08-31 09:30:00 UTC,2445943.895833,29.6633,-93.4786,0090,-5.80,-3.91,7.0000,236.0000
1984-08-31 10:00:00 UTC,2445943.916667,29.6633,-93.4786,0090,-5.59,-4.21,7.0000,233.0000
1984-08-31 10:30:00 UTC,2445943.937500,29.6633,-93.4786,0090,-5.28,-4.59,7.0000,229.0000
1984-08-31 11:00:00 UTC,2445943.958333,29.6633,-93.4786,0090,-5.95,-5.35,8.0000,228.0000
1984-08-31 11:30:00 UTC,2445943.979167,29.6633,-93.4786,0090,-7.09,-5.54,9.0000,232.0000
1984-08-31 12:00:00 UTC,2445944.000000,29.6633,-93.4786,0090,-7.63,-4.77,9.0000,238.0000
1984-08-31 12:30:00 UTC,2445944.020833,29.6633,-93.4786,0090,-7.63,-4.77,9.0000,238.0000
1984-08-31 13:00:00 UTC,2445944.041667,29.6633,-93.4786,0090,-8.29,-5.59,10.0000,236.0000
1984-08-31 13:30:00 UTC,2445944.062500,29.6633,-93.4786,0090,-8.09,-5.88,10.0000,234.0000
1984-08-31 14:00:00 UTC,2445944.083333,29.6633,-93.4786,0090,-6.99,-5.66,9.0000,231.0000
1984-08-31 14:30:00 UTC,2445944.104167,29.6633,-93.4786,0090,-5.85,-5.46,8.0000,227.0000
1984-08-31 15:00:00 UTC,2445944.125000,29.6633,-93.4786,0090,-4.93,-6.30,8.0000,218.0000
1984-08-31 15:30:00 UTC,2445944.145833,29.6633,-93.4786,0090,-6.16,-7.88,10.0000,218.0000
1984-08-31 16:00:00 UTC,2445944.166667,29.6633,-93.4786,0090,-8.43,-7.07,11.0000,230.0000
1984-08-31 16:30:00 UTC,2445944.187500,29.6633,-93.4786,0090,-10.06,-6.54,12.0000,237.0000
1984-08-31 17:00:00 UTC,2445944.208333,29.6633,-93.4786,0090,-9.95,-6.71,12.0000,236.0000
1984-08-31 17:30:00 UTC,2445944.229167,29.6633,-93.4786,0090,-8.29,-5.59,10.0000,236.0000
1984-08-31 18:00:00 UTC,2445944.250000,29.6633,-93.4786,0090,-7.13,-3.63,8.0000,243.0000
1984-08-31 18:30:00 UTC,2445944.270833,29.6633,-93.4786,0090,-7.13,-3.63,8.0000,243.0000
1984-08-31 19:00:00 UTC,2445944.291667,29.6633,-93.4786,0090,-6.18,-3.29,7.0000,242.0000
1984-08-31 19:30:00 UTC,2445944.312500,29.6633,-93.4786,0090,-6.00,-3.61,7.0000,239.0000
1984-08-31 20:00:00 UTC,2445944.333333,29.6633,-93.4786,0090,-6.71,-4.36,8.0000,237.0000
1984-08-31 20:30:00 UTC,2445944.354167,29.6633,-93.4786,0090,-9.53,-5.50,11.0000,240.0000
1984-08-31 21:00:00 UTC,2445944.375000,29.6633,-93.4786,0090,-11.78,-5.49,13.0000,245.0000
1984-08-31 21:30:00 UTC,2445944.395833,29.6633,-93.4786,0090,-13.48,-6.58,15.0000,244.0000
1984-08-31 22:00:00 UTC,2445944.416667,29.6633,-93.4786,0090,-15.15,-7.72,17.0000,243.0000
1984-08-31 22:30:00 UTC,2445944.437500,29.6633,-93.4786,0090,-16.93,-8.63,19.0000,243.0000
1984-08-31 23:00:00 UTC,2445944.458333,29.6633,-93.4786,0090,-17.82,-9.08,20.0000,243.0000
1984-08-31 23:30:00 UTC,2445944.479167,29.6633,-93.4786,0090,-17.98,-8.77,20.0000,244.0000
1984-09-01 00:00:00 UTC,2445944.500000,29.6633,-93.4786,0090,-17.22,-8.03,19.0000,245.0000
1984-09-01 00:30:00 UTC,2445944.520833,29.6633,-93.4786,0090,-16.18,-7.89,18.0000,244.0000
1984-09-01 01:00:00 UTC,2445944.541667,29.6633,-93.4786,0090,-14.72,-8.50,17.0000,240.0000
1984-09-01 01:30:00 UTC,2445944.562500,29.6633,-93.4786,0090,-13.11,-9.18,16.0000,235.0000
1984-09-01 02:00:00 UTC,2445944.583333,29.6633,-93.4786,0090,-10.72,-9.00,14.0000,230.0000
1984-09-01 02:30:00 UTC,2445944.604167,29.6633,-93.4786,0090,-10.24,-8.00,13.0000,232.0000
1984-09-01 03:00:00 UTC,2445944.625000,29.6633,-93.4786,0090,-11.33,-8.23,14.0000,234.0000
1984-09-01 03:30:00 UTC,2445944.645833,29.6633,-93.4786,0090,-11.98,-9.03,15.0000,233.0000
1984-09-01 04:00:00 UTC,2445944.666667,29.6633,-93.4786,0090,-11.98,-9.03,15.0000,233.0000
1984-09-01 04:30:00 UTC,2445944.687500,29.6633,-93.4786,0090,-12.29,-8.60,15.0000,235.0000
1984-09-01 05:00:00 UTC,2445944.708333,29.6633,-93.4786,0090,-12.99,-7.50,15.0000,240.0000
1984-09-01 05:30:00 UTC,2445944.729167,29.6633,-93.4786,0090,-14.13,-7.51,16.0000,242.0000
1984-09-01 06:00:00 UTC,2445944.750000,29.6633,-93.4786,0090,-14.87,-8.24,17.0000,241.0000
1984-09-01 06:30:00 UTC,2445944.770833,29.6633,-93.4786,0090,-13.99,-7.76,16.0000,241.0000
1984-09-01 07:00:00 UTC,2445944.791667,29.6633,-93.4786,0090,-13.37,-6.81,15.0000,243.0000
1984-09-01 07:30:00 UTC,2445944.812500,29.6633,-93.4786,0090,-13.37,-6.81,15.0000,243.0000
1984-09-01 08:00:00 UTC,2445944.833333,29.6633,-93.4786,0090,-14.26,-7.26,16.0000,243.0000
1984-09-01 08:30:00 UTC,2445944.854167,29.6633,-93.4786,0090,-15.15,-7.72,17.0000,243.0000
1984-09-01 09:00:00 UTC,2445944.875000,29.6633,-93.4786,0090,-15.15,-7.72,17.0000,243.0000
1984-09-01 09:30:00 UTC,2445944.895833,29.6633,-93.4786,0090,-15.01,-7.98,17.0000,242.0000
1984-09-01 10:00:00 UTC,2445944.916667,29.6633,-93.4786,0090,-14.57,-8.76,17.0000,239.0000
1984-09-01 10:30:00 UTC,2445944.937500,29.6633,-93.4786,0090,-13.99,-7.76,16.0000,241.0000
1984-09-01 11:00:00 UTC,2445944.958333,29.6633,-93.4786,0090,-14.13,-7.51,16.0000,242.0000
1984-09-01 11:30:00 UTC,2445944.979167,29.6633,-93.4786,0090,-13.71,-8.24,16.0000,239.0000
1984-09-01 12:00:00 UTC,2445945.000000,29.6633,-93.4786,0090,-12.72,-7.95,15.0000,238.0000
1984-09-01 12:30:00 UTC,2445945.020833,29.6633,-93.4786,0090,-12.00,-7.21,14.0000,239.0000
1984-09-01 13:00:00 UTC,2445945.041667,29.6633,-93.4786,0090,-12.12,-7.00,14.0000,240.0000
1984-09-01 13:30:00 UTC,2445945.062500,29.6633,-93.4786,0090,-12.86,-7.73,15.0000,239.0000
1984-09-01 14:00:00 UTC,2445945.083333,29.6633,-93.4786,0090,-11.74,-7.62,14.0000,237.0000
1984-09-01 14:30:00 UTC,2445945.104167,29.6633,-93.4786,0090,-11.02,-6.89,13.0000,238.0000
1984-09-01 15:00:00 UTC,2445945.125000,29.6633,-93.4786,0090,-11.26,-6.50,13.0000,240.0000
1984-09-01 15:30:00 UTC,2445945.145833,29.6633,-93.4786,0090,-11.18,-8.43,14.0000,233.0000
1984-09-01 16:00:00 UTC,2445945.166667,29.6633,-93.4786,0090,-10.91,-11.70,16.0000,223.0000
1984-09-01 16:30:00 UTC,2445945.187500,29.6633,-93.4786,0090,-9.90,-9.90,14.0000,225.0000
1984-09-01 17:00:00 UTC,2445945.208333,29.6633,-93.4786,0090,-10.39,-6.00,12.0000,240.0000
1984-09-01 17:30:00 UTC,2445945.229167,29.6633,-93.4786,0090,-10.13,-4.30,11.0000,247.0000
1984-09-01 18:00:00 UTC,2445945.250000,29.6633,-93.4786,0090,-9.43,-5.67,11.0000,239.0000
1984-09-01 18:30:00 UTC,2445945.270833,29.6633,-93.4786,0090,-8.55,-6.92,11.0000,231.0000
1984-09-01 19:00:00 UTC,2445945.291667,29.6633,-93.4786,0090,-7.37,-5.16,9.0000,235.0000
1984-09-01 19:30:00 UTC,2445945.312500,29.6633,-93.4786,0090,-5.64,-2.05,6.0000,250.0000
1984-09-01 20:00:00 UTC,2445945.333333,29.6633,-93.4786,0090,-4.85,-1.21,5.0000,256.0000
1984-09-01 20:30:00 UTC,2445945.354167,29.6633,-93.4786,0090,-5.80,-1.55,6.0000,255.0000
1984-09-01 21:00:00 UTC,2445945.375000,29.6633,-93.4786,0090,-7.00,-0.00,7.0000,270.0000
1984-09-01 21:30:00 UTC,2445945.395833,29.6633,-93.4786,0090,-8.99,-0.47,9.0000,267.0000
1984-09-01 22:00:00 UTC,2445945.416667,29.6633,-93.4786,0090,-11.78,-5.49,13.0000,245.0000
1984-09-01 22:30:00 UTC,2445945.437500,29.6633,-93.4786,0090,-13.42,-8.71,16.0000,237.0000
1984-09-01 23:00:00 UTC,2445945.458333,29.6633,-93.4786,0090,-12.58,-8.17,15.0000,237.0000
1984-09-01 23:30:00 UTC,2445945.479167,29.6633,-93.4786,0090,-9.43,-5.67,11.0000,239.0000
1984-09-02 00:00:00 UTC,2445945.500000,29.6633,-93.4786,0090,-5.14,-3.09,6.0000,239.0000
1984-09-02 00:30:00 UTC,2445945.520833,29.6633,-93.4786,0090,-3.19,-2.41,4.0000,233.0000
1984-09-02 01:00:00 UTC,2445945.541667,29.6633,-93.4786,0090,-2.80,-1.08,3.0000,249.0000
1984-09-02 01:30:00 UTC,2445945.562500,29.6633,-93.4786,0090,-3.80,1.24,4.0000,288.0000
1984-09-02 02:00:00 UTC,2445945.583333,29.6633,-93.4786,0090,-4.89,1.04,5.0000,282.0000
1984-09-02 02:30:00 UTC,2445945.604167,29.6633,-93.4786,0090,-4.89,-1.04,5.0000,258.0000
1984-09-02 03:00:00 UTC,2445945.625000,29.6633,-93.4786,0090,-4.53,-2.11,5.0000,245.0000
1984-09-02 03:30:00 UTC,2445945.645833,29.6633,-93.4786,0090,-2.26,-1.97,3.0000,229.0000
1984-09-02 04:00:00 UTC,2445945.666667,29.6633,-93.4786,0090,-0.48,-1.94,2.0000,194.0000
1984-09-02 04:30:00 UTC,2445945.687500,29.6633,-93.4786,0090,0.31,-1.98,2.0000,171.0000
1984-09-02 05:00:00 UTC,2445945.708333,29.6633,-93.4786,0090,-0.62,-1.90,2.0000,198.0000
1984-09-02 05:30:00 UTC,2445945.729167,29.6633,-93.4786,0090,-2.33,-1.89,3.0000,231.0000
1984-09-02 06:00:00 UTC,2445945.750000,29.6633,-93.4786,0090,-2.57,-1.55,3.0000,239.0000
1984-09-02 06:30:00 UTC,2445945.770833,29.6633,-93.4786,0090,-2.26,-1.97,3.0000,229.0000
1984-09-02 07:00:00 UTC,2445945.791667,29.6633,-93.4786,0090,-3.11,-2.52,4.0000,231.0000
1984-09-02 07:30:00 UTC,2445945.812500,29.6633,-93.4786,0090,-3.89,-3.15,5.0000,231.0000
1984-09-02 08:00:00 UTC,2445945.833333,29.6633,-93.4786,0090,-3.08,-3.94,5.0000,218.0000
1984-09-02 08:30:00 UTC,2445945.854167,29.6633,-93.4786,0090,0.07,-4.00,4.0000,179.0000
1984-09-02 09:00:00 UTC,2445945.875000,29.6633,-93.4786,0090,2.19,-4.49,5.0000,154.0000
1984-09-02 09:30:00 UTC,2445945.895833,29.6633,-93.4786,0090,2.83,-2.83,4.0000,135.0000
1984-09-02 10:00:00 UTC,2445945.916667,29.6633,-93.4786,0090,1.55,-1.26,2.0000,129.0000
1984-09-02 10:30:00 UTC,2445945.937500,29.6633,-93.4786,0090,-0.52,-2.95,3.0000,190.0000
1984-09-02 11:00:00 UTC,2445945.958333,29.6633,-93.4786,0090,-2.35,-4.41,5.0000,208.0000
1984-09-02 11:30:00 UTC,2445945.979167,29.6633,-93.4786,0090,-1.81,-2.40,3.0000,217.0000
1984-09-02 12:00:00 UTC,2445946.000000,29.6633,-93.4786,0090,-2.57,-3.06,4.0000,220.0000
1984-09-02 12:30:00 UTC,2445946.020833,29.6633,-93.4786,0090,-4.59,-5.28,7.0000,221.0000
1984-09-02 13:00:00 UTC,2445946.041667,29.6633,-93.4786,0090,-2.78,-2.88,4.0000,224.0000
1984-09-02 13:30:00 UTC,2445946.062500,29.6633,-93.4786,0090,4.83,-1.29,5.0000,105.0000
1984-09-02 14:00:00 UTC,2445946.083333,29.6633,-93.4786,0090,14.26,-9.26,17.0000,123.0000
1984-09-02 14:30:00 UTC,2445946.104167,29.6633,-93.4786,0090,16.85,-14.14,22.0000,130.0000
1984-09-02 15:00:00 UTC,2445946.125000,29.6633,-93.4786,0090,9.90,-9.90,14.0000,135.0000
1984-09-02 15:30:00 UTC,2445946.145833,29.6633,-93.4786,0090,-2.11,-4.53,5.0000,205.0000
1984-09-02 16:00:00 UTC,2445946.166667,29.6633,-93.4786,0090,-7.94,-0.97,8.0000,263.0000
1984-09-02 16:30:00 UTC,2445946.187500,29.6633,-93.4786,0090,-5.52,2.34,6.0000,293.0000
1984-09-02 17:00:00 UTC,2445946.208333,29.6633,-93.4786,0090,0.21,3.99,4.0000,3.0000
1984-09-02 17:30:00 UTC,2445946.229167,29.6633,-93.4786,0090,6.54,2.51,7.0000,69.0000
1984-09-02 18:00:00 UTC,2445946.250000,29.6633,-93.4786,0090,11.85,-1.88,12.0000,99.0000
1984-09-02 18:30:00 UTC,2445946.270833,29.6633,-93.4786,0090,12.43,-3.80,13.0000,107.0000
1984-09-02 19:00:00 UTC,2445946.291667,29.6633,-93.4786,0090,9.99,0.35,10.0000,88.0000
1984-09-02 19:30:00 UTC,2445946.312500,29.6633,-93.4786,0090,9.97,4.65,11.0000,65.0000
1984-09-02 20:00:00 UTC,2445946.333333,29.6633,-93.4786,0090,13.39,4.09,14.0000,73.0000
1984-09-02 20:30:00 UTC,2445946.354167,29.6633,-93.4786,0090,15.71,3.05,16.0000,79.0000
1984-09-02 21:00:00 UTC,2445946.375000,29.6633,-93.4786,0090,14.62,3.37,15.0000,77.0000
1984-09-02 21:30:00 UTC,2445946.395833,29.6633,-93.4786,0090,11.28,4.10,12.0000,70.0000
1984-09-02 22:00:00 UTC,2445946.416667,29.6633,-93.4786,0090,8.19,5.74,10.0000,55.0000
1984-09-02 22:30:00 UTC,2445946.437500,29.6633,-93.4786,0090,6.69,6.02,9.0000,48.0000
1984-09-02 23:00:00 UTC,2445946.458333,29.6633,-93.4786,0090,5.85,5.46,8.0000,47.0000
1984-09-02 23:30:00 UTC,2445946.479167,29.6633,-93.4786,0090,6.69,7.43,10.0000,42.0000
1984-09-03 00:00:00 UTC,2445946.500000,29.6633,-93.4786,0090,7.22,9.58,12.0000,37.0000
1984-09-03 00:30:00 UTC,2445946.520833,29.6633,-93.4786,0090,5.59,8.29,10.0000,34.0000
1984-09-03 01:00:00 UTC,2445946.541667,29.6633,-93.4786,0090,4.47,6.63,8.0000,34.0000
1984-09-03 01:30:00 UTC,2445946.562500,29.6633,-93.4786,0090,5.79,6.89,9.0000,40.0000
1984-09-03 02:00:00 UTC,2445946.583333,29.6633,-93.4786,0090,7.77,6.29,10.0000,51.0000
1984-09-03 02:30:00 UTC,2445946.604167,29.6633,-93.4786,0090,6.76,1.81,7.0000,75.0000
1984-09-03 03:00:00 UTC,2445946.625000,29.6633,-93.4786,0090,1.56,-3.68,4.0000,157.0000
1984-09-03 03:30:00 UTC,2445946.645833,29.6633,-93.4786,0090,-4.77,-5.12,7.0000,223.0000
1984-09-03 04:00:00 UTC,2445946.666667,29.6633,-93.4786,0090,-6.69,-2.05,7.0000,253.0000
1984-09-03 04:30:00 UTC,2445946.687500,29.6633,-93.4786,0090,-2.99,-0.26,3.0000,265.0000
1984-09-03 05:00:00 UTC,2445946.708333,29.6633,-93.4786,0090,3.00,0.05,3.0000,89.0000
1984-09-03 05:30:00 UTC,2445946.729167,29.6633,-93.4786,0090,6.82,-1.57,7.0000,103.0000
1984-09-03 06:00:00 UTC,2445946.750000,29.6633,-93.4786,0090,5.20,-3.00,6.0000,120.0000
1984-09-03 06:30:00 UTC,2445946.770833,29.6633,-93.4786,0090,3.28,-2.29,4.0000,125.0000
1984-09-03 07:00:00 UTC,2445946.791667,29.6633,-93.4786,0090,1.73,-1.00,2.0000,120.0000
1984-09-03 07:30:00 UTC,2445946.812500,29.6633,-93.4786,0090,0.75,-0.66,1.0000,131.0000
1984-09-03 08:00:00 UTC,2445946.833333,29.6633,-93.4786,0090,1.84,0.78,2.0000,67.0000
1984-09-03 08:30:00 UTC,2445946.854167,29.6633,-93.4786,0090,4.67,1.79,5.0000,69.0000
1984-09-03 09:00:00 UTC,2445946.875000,29.6633,-93.4786,0090,6.98,0.49,7.0000,86.0000
1984-09-03 09:30:00 UTC,2445946.895833,29.6633,-93.4786,0090,6.89,-1.22,7.0000,100.0000
1984-09-03 10:00:00 UTC,2445946.916667,29.6633,-93.4786,0090,6.95,-0.85,7.0000,97.0000
1984-09-03 10:30:00 UTC,2445946.937500,29.6633,-93.4786,0090,4.99,0.35,5.0000,86.0000
1984-09-03 11:00:00 UTC,2445946.958333,29.6633,-93.4786,0090,-0.10,-0.99,1.0000,186.0000
1984-09-03 11:30:00 UTC,2445946.979167,29.6633,-93.4786,0090,-2.19,-2.05,3.0000,227.0000
1984-09-03 12:00:00 UTC,2445947.000000,29.6633,-93.4786,0090,3.68,-1.56,4.0000,113.0000
1984-09-03 12:30:00 UTC,2445947.020833,29.6633,-93.4786,0090,7.79,-1.80,8.0000,103.0000
1984-09-03 13:00:00 UTC,2445947.041667,29.6633,-93.4786,0090,7.06,-3.76,8.0000,118.0000
1984-09-03 13:30:00 UTC,2445947.062500,29.6633,-93.4786,0090,4.81,-6.39,8.0000,143.0000
1984-09-03 14:00:00 UTC,2445947.083333,29.6633,-93.4786,0090,2.02,-8.77,9.0000,167.0000
1984-09-03 14:30:00 UTC,2445947.104167,29.6633,-93.4786,0090,-0.38,-10.99,11.0000,182.0000
1984-09-03 15:00:00 UTC,2445947.125000,29.6633,-93.4786,0090,0.00,-11.00,11.0000,180.0000
1984-09-03 15:30:00 UTC,2445947.145833,29.6633,-93.4786,0090,1.53,-10.89,11.0000,172.0000
1984-09-03 16:00:00 UTC,2445947.166667,29.6633,-93.4786,0090,1.72,-10.86,11.0000,171.0000
1984-09-03 16:30:00 UTC,2445947.187500,29.6633,-93.4786,0090,1.22,-9.93,10.0000,173.0000
1984-09-03 17:00:00 UTC,2445947.208333,29.6633,-93.4786,0090,1.22,-9.93,10.0000,173.0000
1984-09-03 17:30:00 UTC,2445947.229167,29.6633,-93.4786,0090,0.77,-10.97,11.0000,176.0000
1984-09-03 18:00:00 UTC,2445947.250000,29.6633,-93.4786,0090,2.42,-9.70,10.0000,166.0000
1984-09-03 18:30:00 UTC,2445947.270833,29.6633,-93.4786,0090,5.07,-10.88,12.0000,155.0000
1984-09-03 19:00:00 UTC,2445947.291667,29.6633,-93.4786,0090,3.05,-15.71,16.0000,169.0000
1984-09-03 19:30:00 UTC,2445947.312500,29.6633,-93.4786,0090,-3.87,-15.52,16.0000,194.0000
1984-09-03 20:00:00 UTC,2445947.333333,29.6633,-93.4786,0090,-9.37,-10.40,14.0000,222.0000
1984-09-03 20:30:00 UTC,2445947.354167,29.6633,-93.4786,0090,-11.47,-8.03,14.0000,235.0000
1984-09-03 21:00:00 UTC,2445947.375000,29.6633,-93.4786,0090,-12.72,-7.95,15.0000,238.0000
1984-09-03 21:30:00 UTC,2445947.395833,29.6633,-93.4786,0090,-12.36,-6.57,14.0000,242.0000
1984-09-03 22:00:00 UTC,2445947.416667,29.6633,-93.4786,0090,-9.34,-3.58,10.0000,249.0000
1984-09-03 22:30:00 UTC,2445947.437500,29.6633,-93.4786,0090,-4.49,-2.19,5.0000,244.0000
1984-09-03 23:00:00 UTC,2445947.458333,29.6633,-93.4786,0090,-3.89,-3.15,5.0000,231.0000
1984-09-03 23:30:00 UTC,2445947.479167,29.6633,-93.4786,0090,-4.97,-3.36,6.0000,236.0000
1984-09-04 00:00:00 UTC,2445947.500000,29.6633,-93.4786,0090,-4.41,-2.35,5.0000,242.0000
1984-09-04 00:30:00 UTC,2445947.520833,29.6633,-93.4786,0090,-2.99,-0.21,3.0000,266.0000
1984-09-04 01:00:00 UTC,2445947.541667,29.6633,-93.4786,0090,-0.85,0.53,1.0000,302.0000
1984-09-04 01:30:00 UTC,2445947.562500,29.6633,-93.4786,0090,-1.83,-0.81,2.0000,246.0000
1984-09-04 02:00:00 UTC,2445947.583333,29.6633,-93.4786,0090,-4.57,-2.03,5.0000,246.0000
1984-09-04 02:30:00 UTC,2445947.604167,29.6633,-93.4786,0090,-6.89,-1.22,7.0000,260.0000
1984-09-04 03:00:00 UTC,2445947.625000,29.6633,-93.4786,0090,-5.99,0.31,6.0000,273.0000
1984-09-04 03:30:00 UTC,2445947.645833,29.6633,-93.4786,0090,-3.90,0.90,4.0000,283.0000
1984-09-04 04:00:00 UTC,2445947.666667,29.6633,-93.4786,0090,-0.96,0.29,1.0000,287.0000
1984-09-04 04:30:00 UTC,2445947.687500,29.6633,-93.4786,0090,0.48,0.87,1.0000,29.0000
1984-09-04 05:00:00 UTC,2445947.708333,29.6633,-93.4786,0090,2.05,2.19,3.0000,43.0000
1984-09-04 05:30:00 UTC,2445947.729167,29.6633,-93.4786,0090,4.29,2.58,5.0000,59.0000
1984-09-04 06:00:00 UTC,2445947.750000,29.6633,-93.4786,0090,5.82,1.45,6.0000,76.0000
1984-09-04 06:30:00 UTC,2445947.770833,29.6633,-93.4786,0090,5.99,-0.31,6.0000,93.0000
1984-09-04 07:00:00 UTC,2445947.791667,29.6633,-93.4786,0090,5.96,-0.73,6.0000,97.0000